Time,TemperatureF,DewpointF,PressureIn,WindDirection,WindDirectionDegrees,WindSpeedMPH,WindSpeedGustMPH,Humidity,HourlyPrecipIn,Conditions,Clouds,dailyrainin,SoftwareType,DateUTC
2013-01-04 00:03:00,27.0,20.0,-100.00,WSW,255,7.0,14.0,75,-99.99,,,-99.99,,2013-01-04 05:03:00,
2013-01-04 00:12:00,27.0,20.0,-100.00,West,260,9.0,12.0,75,-99.99,,,-99.99,,2013-01-04 05:12:00,
2013-01-04 00:22:00,27.0,20.0,-100.00,WSW,255,7.0,13.0,75,-99.99,,,-99.99,,2013-01-04 05:22:00,
2013-01-04 00:33:00,27.0,20.0,-100.00,WSW,255,9.0,12.0,75,-99.99,,,-99.99,,2013-01-04 05:33:00,
2013-01-04 00:42:00,27.0,20.0,-100.00,WSW,240,7.0,14.0,75,-99.99,,,-99.99,,2013-01-04 05:42:00,
2013-01-04 00:52:00,27.0,20.0,-100.00,West,265,6.0,13.0,75,-99.99,,,-99.99,,2013-01-04 05:52:00,
2013-01-04 01:02:00,27.0,20.0,-100.00,WSW,245,6.0,12.0,75,-99.99,,,-99.99,,2013-01-04 06:02:00,
2013-01-04 01:12:00,27.0,20.0,-100.00,WSW,255,7.0,13.0,75,-99.99,,,-99.99,,2013-01-04 06:12:00,
2013-01-04 01:22:00,26.0,20.0,-100.00,WSW,255,6.0,12.0,75,-99.99,,,-99.99,,2013-01-04 06:22:00,
2013-01-04 01:33:00,26.0,20.0,-100.00,WSW,250,7.0,15.0,75,-99.99,,,-99.99,,2013-01-04 06:33:00,
2013-01-04 01:42:00,26.0,20.0,-100.00,West,265,8.0,12.0,75,-99.99,,,-99.99,,2013-01-04 06:42:00,
2013-01-04 01:52:00,26.0,20.0,-100.00,West,270,6.0,11.0,75,-99.99,,,-99.99,,2013-01-04 06:52:00,
2013-01-04 02:02:00,26.0,19.0,-100.00,West,260,9.0,16.0,75,-99.99,,,-99.99,,2013-01-04 07:02:00,
2013-01-04 02:12:00,26.0,19.0,-100.00,West,270,7.0,11.0,75,-99.99,,,-99.99,,2013-01-04 07:12:00,
2013-01-04 02:22:00,25.0,19.0,-100.00,West,265,10.0,17.0,75,-99.99,,,-99.99,,2013-01-04 07:22:00,
2013-01-04 02:32:00,25.0,19.0,-100.00,West,260,7.0,12.0,76,-99.99,,,-99.99,,2013-01-04 07:32:00,
2013-01-04 02:42:00,25.0,19.0,-100.00,WSW,255,7.0,12.0,76,-99.99,,,-99.99,,2013-01-04 07:42:00,
2013-01-04 02:52:00,25.0,19.0,-100.00,WSW,250,9.0,12.0,76,-99.99,,,-99.99,,2013-01-04 07:52:00,
2013-01-04 03:02:00,25.0,19.0,-100.00,WSW,250,8.0,13.0,76,-99.99,,,-99.99,,2013-01-04 08:02:00,
2013-01-04 03:12:00,25.0,19.0,-100.00,WSW,245,6.0,12.0,77,-99.99,,,-99.99,,2013-01-04 08:12:00,
2013-01-04 03:22:00,25.0,19.0,-100.00,West,265,10.0,14.0,77,-99.99,,,-99.99,,2013-01-04 08:22:00,
2013-01-04 03:32:00,25.0,19.0,-100.00,West,260,9.0,16.0,78,-99.99,,,-99.99,,2013-01-04 08:32:00,
2013-01-04 03:42:00,25.0,19.0,-100.00,WSW,255,12.0,16.0,78,-99.99,,,-99.99,,2013-01-04 08:42:00,
2013-01-04 03:52:00,25.0,19.0,-100.00,WSW,250,9.0,17.0,78,-99.99,,,-99.99,,2013-01-04 08:52:00,
2013-01-04 04:02:00,24.0,19.0,-100.00,WSW,250,11.0,20.0,79,-99.99,,,-99.99,,2013-01-04 09:02:00,